Weather in Aberystwyth

United Kingdom     52°24′51″N   4°04′54″W
temp.,
°C
wind,
m/s
gust,
m/s
humid.,
%
clouds,
%
prec.,
mm/h
press.,
hPa
HPBL,
m
25 may, wed
wed2501:00+10sw489176 1.3 1010297
04:00+10sw71192100 0.4 1009662
07:00+11sw101497100 2.9 1008894
10:00+12wsw91397100 1.1 1008770
13:00+13w10128962 1.9 1010849
16:00+14wsw8118137 0.6 10121021
19:00+13w7118223 0.8 1014641
22:00+11w7128612 0.1 1017444
26 may, thu
thu2601:00+11wsw611905 0.1 1018449
04:00+11sw5109498 0.0 1018500
07:00+12sw101793100 0.1 1018830
10:00+12wsw101596100 0.1 1019726
13:00+12wsw91397100 0.6 1020558
16:00+12wsw81398100 0.2 1020590
19:00+12wsw81299100 0.6 1021671
22:00+11w6129371 0.3 1022443
27 may, fri
fri2701:00+9nw7118589 0.3 1024484
04:00+8nw598358 0.0 1025332
07:00+9nw478336 0.0 1026586
10:00+11wnw667554 0.1 1028955
13:00+11wnw677395 0.1 1029863
16:00+12nw587045 0.0 1029856
19:00+11wnw237121 0.0 1029372
22:00+8sw118499 0.0 103078
28 may, sat
sat2801:00+7ese1189100 0.0 102983
04:00+6ene119240 0.0 102972
07:00+8ne11875 0.0 1029123
10:00+12nw22724 0.0 1029581
13:00+13wnw42729 0.0 1028657
16:00+13nw44746 0.0 1027446
19:00+14nnw33725 0.0 1026340
22:00+10nne22845 0.0 102642
29 may, sun
sun2901:00+8ese22875 0.0 102632
04:00+7ese228497 0.0 102528
07:00+9sse117637 0.0 102487
10:00+12nw327267 0.0 1023498
13:00+14wnw327255 0.0 1022690
16:00+13nw658142 0.0 1021550
19:00+14n337765 0.1 1019574
22:00+12n227884 0.1 101956